This is the latest recevied weather packets stored in our database for station/object W4SNA-3. If no packets are shown the sender has not sent any weather packets the latest 10 day(s).
| Time | Temp. | Humidity | Pressure | Rain* | Wind** | Luminosity | Snow |
|---|---|---|---|---|---|---|---|
| 1778019954 | 17.78° C | 50% | 1011.9 hPa | 0 mm | - | - | - |
| 1778019676 | 18.33° C | 52% | 1011.8 hPa | 0 mm | - | - | - |
| 1778019357 | 18.33° C | 51% | 1011.9 hPa | 0 mm | - | - | - |
| 1778019057 | 18.33° C | 51% | 1011.9 hPa | 0 mm | - | - | - |
| 1778018755 | 18.33° C | 51% | 1011.7 hPa | 0 mm | - | - | - |
| 1778018454 | 18.33° C | 52% | 1011.8 hPa | 0 mm | - | - | - |
| 1778018154 | 18.33° C | 51% | 1011.8 hPa | 0 mm | - | - | - |
| 1778017854 | 18.33° C | 51% | 1012.7 hPa | 0 mm | - | - | - |
| 1778017590 | 18.89° C | 49% | 1012.6 hPa | 0 mm | - | - | - |
| 1778017255 | 18.89° C | 49% | 1012.6 hPa | 0 mm | - | - | - |
| 1778016956 | 19.44° C | 49% | 1012.6 hPa | 0 mm | - | - | - |
| 1778016654 | 19.44° C | 51% | 1012.8 hPa | 0 mm | - | - | - |
| 1778016074 | 19.44° C | 51% | 1012.9 hPa | 0 mm | - | - | - |
| 1778015774 | 19.44° C | 49% | 1012.8 hPa | 0 mm | - | - | - |
| 1778015474 | 19.44° C | 49% | 1012.7 hPa | 0 mm | - | - | - |
| 1778015174 | 19.44° C | 48% | 1012.9 hPa | 0 mm | - | - | - |
| 1778014585 | 20° C | 47% | 1012.7 hPa | 0 mm | - | - | - |
| 1778014285 | 20° C | 49% | 1012.9 hPa | 0 mm | - | - | - |
| 1778013985 | 20.56° C | 46% | 1012.8 hPa | 0 mm | - | - | - |
| 1778013685 | 20.56° C | 44% | 1012.7 hPa | 0 mm | - | - | - |
| 1778013192 | 21.67° C | 46% | 1012.8 hPa | 0 mm | - | - | - |
| 1778012897 | 21.67° C | 50% | 1013 hPa | 0 mm | - | - | - |
| 1778012593 | 21.67° C | 49% | 1012.9 hPa | 0 mm | - | - | - |
| 1778012294 | 21.11° C | 45% | 1012.9 hPa | 0 mm | - | - | - |
| 1778012066 | 21.11° C | 43% | 1012.9 hPa | 0 mm | - | - | - |
* Rain latest hour (hover to see other rain measurements)
** Current wind speed in m/s (hover to see current wind gust speed)